This is the latest recevied weather packets stored in our database for station/object KK4JIV-13. If no packets are shown the sender has not sent any weather packets the latest 1 day(s).
| Time | Temp. | Humidity | Pressure | Rain* | Wind** | Luminosity | Snow |
|---|---|---|---|---|---|---|---|
| 1778025784 | 26.11° C | 57% | 1013.9 hPa | 0 mm | 0 m/s | 5 W/m² | - |
| 1778025480 | 26.67° C | 56% | 1013.9 hPa | 0 mm | 0 m/s | 9 W/m² | - |
| 1778025178 | 26.67° C | 55% | 1014.1 hPa | 0 mm | 0 m/s | 13 W/m² | - |
| 1778024875 | 26.67° C | 54% | 1013.6 hPa | 0 mm | 0 m/s | 18 W/m² | - |
| 1778024572 | 27.22° C | 52% | 1013.8 hPa | 0 mm | 0.45 m/s, 272° | 22 W/m² | - |
| 1778024269 | 27.78° C | 50% | 1013.7 hPa | 0 mm | 0 m/s | 27 W/m² | - |
| 1778023967 | 27.78° C | 48% | 1013.7 hPa | 0 mm | 0.45 m/s, 151° | 32 W/m² | - |
| 1778023664 | 27.78° C | 47% | 1013.7 hPa | 0 mm | 0.45 m/s, 205° | 36 W/m² | - |
| 1778023361 | 28.33° C | 46% | 1013.8 hPa | 0 mm | 0 m/s | 45 W/m² | - |
| 1778023057 | 28.33° C | 46% | 1013.9 hPa | 0 mm | 0 m/s | 44 W/m² | - |
| 1778022757 | 28.89° C | 46% | 1013.8 hPa | 0 mm | 0 m/s | 52 W/m² | - |
| 1778022455 | 28.89° C | 46% | 1013.6 hPa | 0 mm | 0 m/s | 55 W/m² | - |
| 1778022151 | 28.89° C | 45% | 1013.7 hPa | 0 mm | 0 m/s | 75 W/m² | - |
| 1778021847 | 28.89° C | 45% | 1013.7 hPa | 0 mm | 0.45 m/s, 188° | 85 W/m² | - |
| 1778021545 | 28.89° C | 44% | 1013.6 hPa | 0 mm | 0.89 m/s, 238° | 82 W/m² | - |
| 1778021240 | 29.44° C | 44% | 1013.6 hPa | 0 mm | 0.89 m/s, 250° | 79 W/m² | - |
| 1778020938 | 30° C | 44% | 1013.4 hPa | 0 mm | 0.45 m/s, 230° | 87 W/m² | - |
| 1778020635 | 30° C | 43% | 1013.6 hPa | 0 mm | 0 m/s | 86 W/m² | - |
| 1778020331 | 30° C | 43% | 1013.5 hPa | 0 mm | 0 m/s | 94 W/m² | - |
| 1778020027 | 30.56° C | 42% | 1013.4 hPa | 0 mm | 0.45 m/s, 145° | 115 W/m² | - |
| 1778019723 | 30.56° C | 43% | 1013.5 hPa | 0 mm | 0 m/s | 134 W/m² | - |
| 1778019421 | 30° C | 42% | 1013.6 hPa | 0 mm | 0 m/s | 168 W/m² | - |
| 1778019117 | 30.56° C | 42% | 1013.4 hPa | 0 mm | 0 m/s | 180 W/m² | - |
| 1778018814 | 30° C | 43% | 1013.4 hPa | 0 mm | 0.45 m/s, 230° | 210 W/m² | - |
| 1778018512 | 31.11° C | 41% | 1013.4 hPa | 0 mm | 1.79 m/s, 283° | 229 W/m² | - |
* Rain latest hour (hover to see other rain measurements)
** Current wind speed in m/s (hover to see current wind gust speed)